COSMOS 2492 (754)

Last updated on June 23, 2019, 3:41 a.m. UTC

1 39620U 14012A   19173.93399321 -.00000066  00000-0  10000-3 0  9995
2 39620  65.6316  39.7331 0014247 333.7339 358.3152  2.13103281 40860
UTC
Height (km)
Latitude
Longitude
Inclination
Orbital Period
UTC large
Height (km)
Speed (km/s)
/
Latitude / Longitude
Inclination (degrees)
Orbital Period (minutes)
Azimuth
Elevation
Range (km)
Doppler Factor
iOS Compass Heading
iOS Angle

Next 30 passes for location: Hong Kong

Rise time Rise Azimuth (degrees) Set time Set Azimuth (degrees) Duration Max altitude (degrees)

No matching passes for this satellites